DATE/TIME(UTC),Outside Humidity (),Lat. , Long.,Direction / Angle (),Direction / Angle (),Speed (ground - true North),Speed (Apparent),Barometric Pressure (),Outside Temperature ()
Jul-23-2019 00:00:00,,33.827825,-121.8206733,311.0931644,65.45469852,18.29157667,17.63066955,1009,14.99
Jul-23-2019 00:00:15,,33.8274633,-121.8214566,310.1936207,64.497859,16.38660907,15.95896328,1009,15.03
Jul-23-2019 00:00:30,,33.82712,-121.822205,314.6913394,64.03949276,17.18358531,15.23974082,1009,15.07
Jul-23-2019 00:00:45,,33.8267616,-121.82296,319.3895933,66.27975774,16.98920086,15.7062635,1009,15.07
Jul-23-2019 00:01:00,,33.8264183,-121.8237116,319.3895933,61.66171791,15.58963283,14.5399568,1009,15.09
Jul-23-2019 00:01:15,,33.8260683,-121.824485,314.8918746,58.35575143,15.39524838,13.85961123,1009,15.08
Jul-23-2019 00:01:30,,33.82571,-121.8252583,311.6947701,60.99135729,15.29805616,13.70410367,1009,15.07
Jul-23-2019 00:01:45,,33.8253483,-121.8260366,319.4927257,59.62771774,15.8812095,14.13174946,1009,15.17
Jul-23-2019 00:02:00,,33.8250016,-121.8268033,314.1928661,63.51237159,14.48164147,13.23758099,1009,15.17
Jul-23-2019 00:02:15,,33.8246483,-121.827565,314.2902689,64.41191533,14.69546436,15.16198704,1009,15.18
Jul-23-2019 00:02:30,,33.8242966,-121.8283266,308.5893389,63.31183636,14.28725702,13.70410367,1009,15.18
Jul-23-2019 00:02:45,,33.8239316,-121.8290866,320.1917342,69.66020873,17.18358531,15.16198704,1009,15.17
Jul-23-2019 00:03:00,,33.8235716,-121.829835,325.6921291,64.22283926,19.28293737,12.26565875,1009,15.23
Jul-23-2019 00:03:15,,33.8232233,-121.8306033,321.5897513,66.85271554,18.19438445,16.36717063,1009,15.22
Jul-23-2019 00:03:30,,33.8228783,-121.8313666,314.5939366,65.98181969,16.79481641,14.7537797,1009,15.23
Jul-23-2019 00:03:45,,33.8225183,-121.8321283,313.9923309,65.34010696,18.68034557,16.54211663,1009,15.23
Jul-23-2019 00:04:00,,33.822175,-121.832885,311.6947701,71.32751592,19.18574514,17.08639309,1009,15.22
Jul-23-2019 00:04:15,,33.8218116,-121.8336216,312.090111,67.00741414,18.58315335,18.87473002,1009,15.11
Jul-23-2019 00:04:30,,33.8214416,-121.8343766,322.5924274,71.93485118,17.08639309,14.44276458,1009,15.11
Jul-23-2019 00:04:45,,33.821085,-121.835125,318.7937172,77.45816432,14.48164147,14.42332613,1009,15.24
Jul-23-2019 00:05:00,,33.8207133,-121.835885,333.0890142,73.36724567,15.78401728,13.08207343,1009,15.27
Jul-23-2019 00:05:15,,33.8203433,-121.83664,338.0909358,75.03455285,17.39740821,12.61555076,1009,15.28
Jul-23-2019 00:05:30,,33.8199733,-121.8374016,325.394191,67.72361138,15.68682505,12.47948164,1009,15.37
Jul-23-2019 00:05:45,,33.819605,-121.8381683,325.1936558,65.78701404,17.08639309,15.97840173,1009,15.34
Jul-23-2019 00:06:00,,33.8192466,-121.8389266,326.2937347,67.67204518,15.58963283,13.1987041,1009,15.33
Jul-23-2019 00:06:15,,33.8189,-121.8397016,316.2898916,67.9012283,13.29589633,13.27645788,1009,15.39
Jul-23-2019 00:06:30,,33.8185483,-121.8404416,320.4896723,63.22589269,15.58963283,12.09071274,1009,15.4
Jul-23-2019 00:06:45,,33.818225,-121.8410816,324.9931206,75.44708246,16.69762419,13.9762419,1009,15.36
Jul-23-2019 00:07:00,,33.8179333,-121.84166,328.1902251,73.52767385,15.4924406,13.08207343,1009,15.38
Jul-23-2019 00:07:15,,33.817665,-121.8421783,323.1940331,76.56435016,16.89200864,13.21814255,1009,15.41
Jul-23-2019 00:07:30,,33.817415,-121.842665,316.8914973,75.20071061,14.19006479,10.24406048,1009,15.38
Jul-23-2019 00:07:45,,33.8171883,-121.8431,310.5946912,69.68885662,14.09287257,11.06047516,1009,15.44
Jul-23-2019 00:08:00,,33.8169866,-121.8434733,313.3907252,77.27481783,16.4838013,10.06911447,1009,15.44
Jul-23-2019 00:08:15,,33.8168216,-121.84377,313.2933224,85.80042982,16.0950324,11.00215983,1009,15.37
Jul-23-2019 00:08:30,,33.8166966,-121.84401,315.1898127,73.08076677,15.18142549,10.78833693,1009,15.38
Jul-23-2019 00:08:45,,33.8166033,-121.8442383,324.3915149,70.78893559,16.19222462,13.17926566,1009,15.45
Jul-23-2019 00:09:00,,33.8165433,-121.844395,331.1925239,50.50050006,15.08423326,14.26781857,1009,15.38
Jul-23-2019 00:09:15,,33.8165116,-121.8445083,326.9927433,38.50849341,16.19222462,13.50971922,1010,15.28
Jul-23-2019 00:09:30,,33.8164966,-121.844585,342.4912516,27.85147842,18.29157667,16.13390929,1010,15.4
Jul-23-2019 00:09:45,,33.8164933,-121.8446016,354.7926555,357.2621036,16.4838013,10.94384449,1010,15.34
Jul-23-2019 00:10:00,,33.816495,-121.844575,356.0932697,329.9492055,14.98704104,12.92656587,1010,15.31
Jul-23-2019 00:10:15,,33.8164483,-121.8445233,341.3911727,308.8414403,16.0950324,14.67602592,1010,15.31
Jul-23-2019 00:10:30,,33.8164,-121.8444666,339.4889528,293.3658503,17.88336933,10.67170626,1010,15.25
Jul-23-2019 00:10:45,,33.8163216,-121.8443983,344.0898039,286.5705708,15.29805616,1.088552916,1009,15.37
Jul-23-2019 00:11:00,,33.8162266,-121.8443366,336.9908568,221.7919625,7.095032397,3.304535637,1010,15.48
Jul-23-2019 00:11:15,,33.8161333,-121.8442766,332.2926029,242.0231022,8.591792657,2.118790497,1010,15.45
Jul-23-2019 00:11:30,,33.8160166,-121.8442616,329.7887773,229.8248308,15.4924406,11.04103672,1010,15.37
Jul-23-2019 00:11:45,,33.8159183,-121.8442716,325.1936558,206.8263049,12.69330454,10.45788337,1010,15.62
Jul-23-2019 00:12:00,,33.8158416,-121.84427,328.0928222,185.1341228,14.88984881,5.812095032,1010,15.61
Jul-23-2019 00:12:15,,33.8157733,-121.8442183,332.4931381,201.0451607,16.4838013,7.892008639,1010,15.54
Jul-23-2019 00:12:30,,33.8157166,-121.8441866,333.6906199,205.6517414,16.58099352,11.1187905,1010,15.6
Jul-23-2019 00:12:45,,33.81566,-121.8441766,335.1917693,209.9030882,16.38660907,11.83801296,1010,15.53
Jul-23-2019 00:13:00,,33.8156066,-121.8441816,334.3896284,206.2476175,15.8812095,9.233261339,1010,15.55
Jul-23-2019 00:13:15,,33.8155583,-121.844195,334.8938313,206.0871893,13.89848812,5.928725702,1010,15.57
Jul-23-2019 00:13:30,,33.8155,-121.8441966,334.8938313,205.4741245,14.88984881,9.194384449,1010,15.62
Jul-23-2019 00:13:45,,33.8154433,-121.84418,340.1936909,211.5417475,13.1987041,10.08855292,1010,15.65
Jul-23-2019 00:14:00,,33.8153666,-121.844175,343.0928573,213.7762829,13.39308855,7.950323974,1010,15.7
Jul-23-2019 00:14:15,,33.815305,-121.8441666,340.5890317,206.0470823,13.1987041,8.105831533,1010,15.69
Jul-23-2019 00:14:30,,33.8152466,-121.844145,339.8900232,203.4859609,13.99568035,9.447084233,1010,15.61
Jul-23-2019 00:14:45,,33.8151983,-121.8441266,340.2910937,212.2292969,14.69546436,8.300215983,1010,15.59
Jul-23-2019 00:15:00,,33.8151433,-121.8441066,344.7888124,208.9577079,15.08423326,9.369330454,1010,15.56
Jul-23-2019 00:15:15,,33.8150983,-121.8441,343.0928573,206.6314992,13.99568035,9.855291577,1010,15.61
Jul-23-2019 00:15:30,,33.815045,-121.8440883,341.7922431,214.0283844,13.68466523,7.483801296,1010,15.67
Jul-23-2019 00:15:45,,33.8149866,-121.8440633,341.2937698,222.0211456,12.18790497,8.941684665,1010,15.68
Jul-23-2019 00:16:00,,33.8149216,-121.8440266,342.0901812,221.133061,13.49028078,7.153347732,1010,15.8
Jul-23-2019 00:16:15,,33.814855,-121.8439883,343.2933925,227.7564531,14.48164147,10.3412527,1010,15.85
Jul-23-2019 00:16:30,,33.8148166,-121.843965,346.8915675,228.0486616,14.19006479,6.006479482,1010,15.71
Jul-23-2019 00:16:45,,33.8147683,-121.8439983,343.0928573,226.9829601,15.4924406,7.69762419,1010,15.51
Jul-23-2019 00:17:00,,33.8147083,-121.8440116,345.4935505,236.0185045,14.59827214,10.28293737,1010,15.46
Jul-23-2019 00:17:15,,33.8146466,-121.8440333,343.2933925,236.6945947,14.59827214,10.10799136,1010,15.46
Jul-23-2019 00:17:30,,33.8145833,-121.84406,348.0890493,227.1548475,14.79265659,7.386609071,1010,15.54
Jul-23-2019 00:17:45,,33.8145133,-121.8440616,344.3934715,226.2896812,16.79481641,9.388768898,1010,15.74
Jul-23-2019 00:18:00,,33.814445,-121.8440716,340.5890317,212.1376236,15.99784017,3.887688985,1010,16.16
Jul-23-2019 00:18:15,,33.81438,-121.8440583,338.589409,212.7392293,15.58963283,6.842332613,1010,16.45
Jul-23-2019 00:18:30,,33.8142833,-121.8440466,342.9897249,230.0597435,17.88336933,5.889848812,1010,16.33
Jul-23-2019 00:18:45,,33.8141966,-121.8440266,342.9897249,224.3072472,16.98920086,7.639308855,1010,16.2
Jul-23-2019 00:19:00,,33.81411,-121.8440016,342.3938488,229.7732646,17.08639309,9.544276458,1010,16.26
Jul-23-2019 00:19:15,,33.8140283,-121.84399,340.9901022,231.7843464,15.99784017,10.24406048,1010,16.15
Jul-23-2019 00:19:30,,33.81395,-121.8439983,337.2887948,223.9462838,16.28941685,6.745140389,1010,16.13
Jul-23-2019 00:19:45,,33.813865,-121.8439916,337.191392,223.7686669,15.58963283,6.958963283,1010,16.11
Jul-23-2019 00:20:00,,33.8137966,-121.844,338.6925414,222.3706499,15.29805616,9.136069114,1010,16
Jul-23-2019 00:20:15,,33.8137333,-121.8440216,334.4927608,204.7350089,13.89848812,4.548596112,1010,16.14
Jul-23-2019 00:20:30,,33.8136733,-121.8440583,337.0939892,200.9534875,12.69330454,3.149028078,1010,16.07
Jul-23-2019 00:20:45,,33.8136116,-121.8440633,334.693296,207.937843,11.58531317,6.609071274,1010,16.28
Jul-23-2019 00:21:00,,33.8135633,-121.8440916,329.9893125,211.5646659,10.88552916,8.96112311,1010,16.19
Jul-23-2019 00:21:15,,33.813535,-121.8441066,329.8919097,209.9317361,12.49892009,9.136069114,1010,15.76
Jul-23-2019 00:21:30,,33.8135,-121.8441416,331.3930591,206.6200401,12.09071274,9.738660907,1010,15.53
Jul-23-2019 00:21:45,,33.8134566,-121.8441616,332.4931381,209.1754318,10.88552916,10.47732181,1010,15.79
Jul-23-2019 00:22:00,,33.8133966,-121.8441783,330.4935154,214.0799506,10.59395248,7.406047516,1010,16.08
Jul-23-2019 00:22:15,,33.813345,-121.844205,328.992366,209.0722994,13.587473,9.252699784,1010,15.79
Jul-23-2019 00:22:30,,33.8132983,-121.84424,331.2899267,208.1097303,12.28509719,7.036717063,1010,15.63
Jul-23-2019 00:22:45,,33.8132516,-121.844255,329.3934364,208.0925416,15.08423326,9.622030238,1010,15.85
Jul-23-2019 00:23:00,,33.8132116,-121.8442766,328.8892336,201.7842763,15.58963283,9.874730022,1010,15.51
Jul-23-2019 00:23:15,,33.8131966,-121.84429,331.6909972,201.4290425,17.28077754,10.3412527,1010,15.48
Jul-23-2019 00:23:30,,33.813155,-121.8443183,329.8919097,209.0952178,16.0950324,9.058315335,1010,15.52
Jul-23-2019 00:23:45,,33.8130933,-121.8443183,330.4935154,200.4607438,17.39740821,8.125269978,1010,15.49
Jul-23-2019 00:24:00,,33.8130483,-121.8443316,330.6940506,208.1326487,17.49460043,11.35205184,1010,15.41
Jul-23-2019 00:24:15,,33.813005,-121.8443466,337.4893301,199.5440113,17.18358531,9.330453564,1010,15.46
Jul-23-2019 00:24:30,,33.812945,-121.84435,333.6906199,203.6005525,16.98920086,10.76889849,1010,15.4
Jul-23-2019 00:24:45,,33.812915,-121.84437,336.893454,209.9431953,17.88336933,12.65442765,1010,15.41
Jul-23-2019 00:25:00,,33.81288,-121.844375,335.5928398,204.5860399,15.78401728,8.105831533,1010,15.43
Jul-23-2019 00:25:15,,33.8128416,-121.8443883,331.7941296,190.2105288,16.69762419,8.222462203,1010,15.39
Jul-23-2019 00:25:30,,33.8128133,-121.8444,337.8904005,210.9630602,16.38660907,10.57451404,1010,15.37
Jul-23-2019 00:25:45,,33.812795,-121.84442,334.4927608,207.2904007,15.58963283,10.5161987,1010,15.44
Jul-23-2019 00:26:00,,33.8127733,-121.8444333,336.893454,212.8366322,15.68682505,10.47732181,1010,15.38
Jul-23-2019 00:26:15,,33.8127416,-121.8444366,338.589409,207.1414317,15.8812095,8.222462203,1010,15.43
Jul-23-2019 00:26:30,,33.81269,-121.84442,340.9901022,212.1834603,12.38228942,13.70410367,1010,15.82
Jul-23-2019 00:26:45,,33.8126216,-121.8443966,340.3942261,202.5692285,12.28509719,7.580993521,1010,16.06
Jul-23-2019 00:27:00,,33.812565,-121.84439,344.1929363,222.7545316,14.88984881,6.025917927,1010,16.15
Jul-23-2019 00:27:15,,33.8125283,-121.8443933,338.589409,225.1609543,12.88768898,7.794816415,1010,16.28
Jul-23-2019 00:27:30,,33.8125066,-121.8444166,335.4897074,213.3694829,12.88768898,6.939524838,1010,16.35
Jul-23-2019 00:27:45,,33.8124733,-121.8444316,337.9935329,209.6337981,11.89632829,9.485961123,1010,16.59
Jul-23-2019 00:28:00,,33.81243,-121.844435,335.6902426,208.4420459,13.49028078,9.991360691,1010,16.19
Jul-23-2019 00:28:15,,33.8124083,-121.844455,337.6898653,208.8603051,15.8812095,10.30237581,1010,15.72
Jul-23-2019 00:28:30,,33.8123716,-121.8444633,337.8904005,207.8461698,14.48164147,8.96112311,1010,15.48
Jul-23-2019 00:28:45,,33.8123383,-121.8444716,341.1906374,210.1723784,12.59611231,11.74082073,1010,15.69
Jul-23-2019 00:29:00,,33.81228,-121.8444733,339.0936119,205.8007104,14.48164147,9.369330454,1010,15.64
Jul-23-2019 00:29:15,,33.812225,-121.84446,337.9935329,209.3473192,16.4838013,10.39956803,1010,15.51
Jul-23-2019 00:29:30,,33.8121783,-121.844455,342.3938488,211.4328856,17.98056156,14.46220302,1010,15.42
Jul-23-2019 00:29:45,,33.812145,-121.8444566,339.2941471,204.0703779,17.28077754,10.59395248,1010,15.38
Jul-23-2019 00:30:00,,33.81211,-121.8444666,341.5917079,209.7140122,18.19438445,10.36069114,1010,15.4
Jul-23-2019 00:30:15,,33.8120583,-121.8444683,336.2918483,201.0394312,18.3887689,8.222462203,1010,15.38
Jul-23-2019 00:30:30,,33.8119883,-121.8444666,338.0909358,196.7594364,19.38012959,10.39956803,1010,15.3
Jul-23-2019 00:30:45,,33.8119366,-121.8444516,341.7922431,207.2502937,16.4838013,9.408207343,1010,15.32
Jul-23-2019 00:31:00,,33.81189,-121.8444366,340.8926994,210.3041587,14.19006479,12.20734341,1010,15.56
Jul-23-2019 00:31:15,,33.81184,-121.844425,342.8923221,218.2568129,12.09071274,11.15766739,1010,15.99
Jul-23-2019 00:31:30,,33.8117866,-121.8444133,342.6917868,210.4244798,11.07991361,12.05183585,1010,16.21
Jul-23-2019 00:31:45,,33.81174,-121.8444083,341.2937698,211.8912518,13.08207343,10.63282937,1010,15.78
Jul-23-2019 00:32:00,,33.8117283,-121.844425,341.7922431,214.4122661,12.59611231,12.73218143,1010,15.49
Jul-23-2019 00:32:15,,33.8117133,-121.844445,340.0905585,212.6475561,14.38444924,9.194384449,1010,15.38
Jul-23-2019 00:32:30,,33.8116933,-121.8444633,336.6929187,208.0638937,14.28725702,7.425485961,1010,15.41
Jul-23-2019 00:32:45,,33.811675,-121.8444616,335.0943665,206.7403612,16.0950324,10.53563715,1010,15.42
Jul-23-2019 00:33:00,,33.8116433,-121.8444533,332.2926029,209.3759671,15.78401728,10.43844492,1010,15.48
Jul-23-2019 00:33:15,,33.811605,-121.84445,334.8938313,211.6907166,17.18358531,11.91576674,1010,15.43
Jul-23-2019 00:33:30,,33.8115616,-121.8444666,332.3900057,209.8400629,15.99784017,14.05399568,1010,15.37
Jul-23-2019 00:33:45,,33.811505,-121.84447,332.2926029,209.5994206,13.78185745,12.6349892,1010,15.63
Jul-23-2019 00:34:00,,33.8114533,-121.8444833,330.2929802,212.0631391,15.8812095,12.22678186,1010,15.6
Jul-23-2019 00:34:15,,33.8113966,-121.8444933,332.5905409,209.771308,14.19006479,13.89848812,1010,15.37
Jul-23-2019 00:34:30,,33.8113683,-121.8445216,333.7937523,207.5023951,13.587473,12.47948164,1010,15.4
Jul-23-2019 00:34:45,,33.81134,-121.8445533,335.5928398,207.4508289,12.59611231,9.855291577,1010,15.74
Jul-23-2019 00:35:00,,33.81129,-121.8445583,335.3923045,209.1295952,11.77969762,9.311015119,1010,16.13
Jul-23-2019 00:35:15,,33.8112433,-121.844565,334.693296,194.226963,12.38228942,2.993520518,1010,16.41
Jul-23-2019 00:35:30,,33.811205,-121.844585,332.0920676,199.5325522,12.69330454,6.025917927,1010,16.51
Jul-23-2019 00:35:45,,33.81117,-121.84462,330.1898478,212.5959899,11.58531317,11.87688985,1010,16.3
Jul-23-2019 00:36:00,,33.8111466,-121.8446566,329.8919097,201.8243833,14.28725702,8.416846652,1010,15.68
Jul-23-2019 00:36:15,,33.8111133,-121.844675,329.1929012,211.5073701,16.58099352,10.98272138,1010,15.47
Jul-23-2019 00:36:30,,33.8110733,-121.8446966,333.4900847,214.7789591,14.28725702,11.09935205,1010,15.59
Jul-23-2019 00:36:45,,33.81103,-121.8447083,332.2926029,208.6941473,14.19006479,13.0237581,1009,15.96
Jul-23-2019 00:37:00,,33.8110016,-121.844735,332.1894705,205.1532681,13.78185745,10.98272138,1009,16.3
Jul-23-2019 00:37:15,,33.8109666,-121.84476,330.2929802,208.8488459,17.39740821,14.19006479,1010,15.71
Jul-23-2019 00:37:30,,33.8109133,-121.8447716,330.5909182,210.6307446,16.0950324,13.8012959,1010,15.29
Jul-23-2019 00:37:45,,33.8108616,-121.8447733,333.1921466,209.7082826,13.99568035,12.8488121,1010,15.31
Jul-23-2019 00:38:00,,33.8108333,-121.8447966,338.7899443,214.2518379,14.09287257,14.32613391,1010,15.48
Jul-23-2019 00:38:15,,33.81078,-121.844795,338.6925414,216.423348,12.28509719,4.840172786,1010,15.91
Jul-23-2019 00:38:30,,33.8107316,-121.8448016,330.9919887,214.9279281,11.89632829,9.622030238,1010,15.98
Jul-23-2019 00:38:45,,33.81066,-121.8447833,332.7910761,208.5279895,12.59611231,11.48812095,1010,15.61
Jul-23-2019 00:39:00,,33.8106216,-121.8448,331.2899267,199.1830479,12.28509719,7.833693305,1010,15.5
Jul-23-2019 00:39:15,,33.810565,-121.8447933,330.0924449,196.9485125,13.29589633,3.032397408,1010,15.89
Jul-23-2019 00:39:30,,33.810525,-121.8448033,328.6944279,209.5134769,11.6825054,9.680345572,1010,15.93
Jul-23-2019 00:39:45,,33.8104883,-121.844835,335.5928398,222.5138893,11.6825054,4.431965443,1010,16.05
Jul-23-2019 00:40:00,,33.8104316,-121.8448366,340.3942261,215.3576465,10.78833693,6.861771058,1010,16.39
Jul-23-2019 00:40:15,,33.81038,-121.8448416,340.6921641,210.029139,11.07991361,6.920086393,1010,16.24
Jul-23-2019 00:40:30,,33.8103333,-121.844855,333.8911551,217.1166269,9.796976242,9.427645788,1010,16.42
Jul-23-2019 00:40:45,,33.810285,-121.8448666,334.8938313,208.9347896,13.89848812,10.55507559,1010,16.02
Jul-23-2019 00:41:00,,33.8102416,-121.8448783,335.793375,209.2384572,14.88984881,10.10799136,1010,15.37
Jul-23-2019 00:41:15,,33.810205,-121.8448866,332.1894705,207.2961303,14.59827214,9.136069114,1010,15.34
Jul-23-2019 00:41:30,,33.8101633,-121.8448933,330.8888563,200.6383607,12.88768898,6.609071274,1010,15.34
Jul-23-2019 00:41:45,,33.8101166,-121.8448966,331.490462,193.7571376,12.49892009,5.462203024,1010,15.38
Jul-23-2019 00:42:00,,33.8100933,-121.844905,332.1894705,205.1704569,12.98488121,9.213822894,1010,15.36
Jul-23-2019 00:42:15,,33.81005,-121.8448966,334.5901636,213.4726153,11.89632829,9.505399568,1010,15.42
Jul-23-2019 00:42:30,,33.8099883,-121.8448916,338.291471,206.7518204,11.77969762,9.466522678,1010,15.55
Jul-23-2019 00:42:45,,33.8099416,-121.84489,331.0893915,195.6593575,12.69330454,5.190064795,1010,15.51
Jul-23-2019 00:43:00,,33.80991,-121.844885,334.4927608,206.6200401,12.98488121,6.609071274,1010,15.46
Jul-23-2019 00:43:15,,33.8098983,-121.8448866,332.4931381,194.3243658,13.89848812,7.464362851,1010,15.47
Jul-23-2019 00:43:30,,33.8098766,-121.8448866,332.0920676,204.1448624,15.39524838,9.816414687,1010,15.46
Jul-23-2019 00:43:45,,33.8098483,-121.8448883,325.8926643,176.9752038,15.58963283,13.89848812,1010,15.38
Jul-23-2019 00:44:00,,33.8098333,-121.8448883,332.1894705,181.3124943,14.88984881,5.151187905,1010,15.31
Jul-23-2019 00:44:15,,33.809825,-121.8448883,337.9935329,203.6120117,16.58099352,12.28509719,1010,15.4
Jul-23-2019 00:44:30,,33.8098266,-121.8448966,336.5897863,203.6177412,14.59827214,9.408207343,1010,15.41
Jul-23-2019 00:44:45,,33.8098066,-121.8448883,335.0943665,212.7105814,16.19222462,9.427645788,1010,15.38
Jul-23-2019 00:45:00,,33.8097716,-121.8448833,336.4923835,208.3847501,15.78401728,10.55507559,1010,15.38
Jul-23-2019 00:45:15,,33.809735,-121.8448833,336.9908568,205.6918485,15.08423326,10.43844492,1010,15.38
Jul-23-2019 00:45:30,,33.8097133,-121.8448983,333.2895494,195.5734138,15.29805616,7.639308855,1010,15.44
Jul-23-2019 00:45:45,,33.809675,-121.8448783,337.5924625,203.308344,12.88768898,8.980561555,1010,15.46
Jul-23-2019 00:46:00,,33.80964,-121.844865,336.1887159,214.4294548,12.98488121,6.51187905,1010,15.54
Jul-23-2019 00:46:15,,33.809645,-121.844885,334.7906989,208.6139332,12.59611231,7.950323974,1010,15.54
Jul-23-2019 00:46:30,,33.8096533,-121.8449033,334.2922256,202.9874877,13.68466523,6.51187905,1010,15.51
Jul-23-2019 00:46:45,,33.80964,-121.8449033,335.4897074,207.1013246,15.58963283,10.53563715,1010,15.53
Jul-23-2019 00:47:00,,33.8096183,-121.8449033,333.2895494,200.5696058,15.58963283,8.533477322,1010,15.53
Jul-23-2019 00:47:15,,33.8095966,-121.844895,332.8942085,193.8889179,17.98056156,9.11663067,1010,15.46
Jul-23-2019 00:47:30,,33.809615,-121.8449116,334.2922256,197.9339999,18.29157667,10.12742981,1010,15.36
Jul-23-2019 00:47:45,,33.8095966,-121.8449066,333.7937523,197.7678421,19.28293737,8.591792657,1010,15.31
Jul-23-2019 00:48:00,,33.8096066,-121.844915,330.1898478,198.3980957,17.68898488,10.32181425,1010,15.23
Jul-23-2019 00:48:15,,33.8096066,-121.84493,330.8888563,195.7395716,17.28077754,7.678185745,1010,15.19
Jul-23-2019 00:48:30,,33.8095983,-121.8449283,327.0901461,193.5566024,17.39740821,11.39092873,1010,15.14
Jul-23-2019 00:48:45,,33.8095766,-121.8449416,328.4938927,190.6746246,16.69762419,9.738660907,1010,15.11
Jul-23-2019 00:49:00,,33.8095416,-121.8449433,330.0924449,187.7296216,17.88336933,9.330453564,1010,15.18
Jul-23-2019 00:49:15,,33.8094883,-121.8449216,330.6940506,192.0038867,17.28077754,9.738660907,1010,15.21
Jul-23-2019 00:49:30,,33.8094566,-121.8449033,331.6909972,186.0050186,16.28941685,8.475161987,1010,15.24
Jul-23-2019 00:49:45,,33.809435,-121.8448816,333.7937523,194.3415545,15.29805616,7.172786177,1010,15.27
Jul-23-2019 00:50:00,,33.809405,-121.8448633,334.3896284,204.2250765,15.58963283,10.08855292,1010,15.22
Jul-23-2019 00:50:15,,33.8093483,-121.8448316,331.2899267,200.0654029,15.58963283,7.853131749,1010,15.22
Jul-23-2019 00:50:30,,33.8093233,-121.8448233,328.1902251,186.3430637,14.09287257,8.261339093,1010,15.2
Jul-23-2019 00:50:45,,33.8092816,-121.8448016,327.3938137,197.8308675,13.29589633,7.794816415,1010,15.23
Jul-23-2019 00:51:00,,33.8092283,-121.8447816,325.6921291,181.6333506,14.38444924,7.833693305,1010,15.29
Jul-23-2019 00:51:15,,33.8092083,-121.8447783,326.2937347,188.3713343,14.69546436,8.611231102,1010,15.26
Jul-23-2019 00:51:30,,33.8091983,-121.8447733,331.0893915,197.6990872,15.58963283,8.241900648,1010,15.25
Jul-23-2019 00:51:45,,33.809185,-121.8447683,327.4912165,188.4859259,15.08423326,8.105831533,1010,15.27
Jul-23-2019 00:52:00,,33.8091433,-121.844745,323.589374,184.2804156,13.99568035,9.933045356,1010,15.18
Jul-23-2019 00:52:15,,33.8091333,-121.844745,317.1894354,173.3827584,14.48164147,14.07343413,1010,15.21
Jul-23-2019 00:52:30,,33.80912,-121.844745,320.0943314,179.7540491,14.98704104,12.61555076,1009,15.15
Jul-23-2019 00:52:45,,33.8090733,-121.8447533,318.0889791,175.9496093,15.08423326,15.1425486,1009,15.09
Jul-23-2019 00:53:00,,33.80902,-121.8447283,321.8934189,182.1203648,15.4924406,11.97408207,1009,15.02
Jul-23-2019 00:53:15,,33.8089766,-121.8446916,328.7918307,194.484794,15.39524838,5.831533477,1010,15.05
Jul-23-2019 00:53:30,,33.8089533,-121.8446716,320.2891371,180.0290688,15.18142549,12.30453564,1010,15.12
Jul-23-2019 00:53:45,,33.8089183,-121.844645,327.4912165,205.766333,15.39524838,9.505399568,1010,15.16
Jul-23-2019 00:54:00,,33.8088633,-121.8446116,321.8934189,180.5905674,14.19006479,10.39956803,1009,15.2
Jul-23-2019 00:54:15,,33.808815,-121.8445816,324.1909796,187.6895145,13.1987041,6.803455724,1009,15.17
Jul-23-2019 00:54:30,,33.8087816,-121.8445633,326.0931995,198.9137577,13.68466523,5.714902808,1010,15.22
Jul-23-2019 00:54:45,,33.8087483,-121.844545,332.8942085,201.4691495,15.8812095,11.35205184,1010,15.31
Jul-23-2019 00:55:00,,33.8087016,-121.844525,334.9912341,206.2304288,16.58099352,11.21598272,1010,15.32
Jul-23-2019 00:55:15,,33.8086516,-121.8445116,333.8911551,206.6601471,14.98704104,9.952483801,1010,15.3
Jul-23-2019 00:55:30,,33.8085833,-121.8444883,329.7887773,186.2284722,13.1987041,6.531317495,1010,15.24
Jul-23-2019 00:55:45,,33.8085366,-121.8444633,331.6909972,198.123076,16.28941685,8.825053996,1010,15.35
Jul-23-2019 00:56:00,,33.8084833,-121.8444416,332.9916114,203.159375,17.39740821,8.650107991,1010,15.33
Jul-23-2019 00:56:15,,33.8084266,-121.8444183,332.0920676,200.1570762,16.89200864,9.272138229,1010,15.28
Jul-23-2019 00:56:30,,33.80836,-121.8443866,334.3896284,200.9133804,15.58963283,9.505399568,1010,15.25